Tracking 19146 objects as of 23-Apr-2018
HD Live streaming from Space Station
objects crossing your sky now

COSMOS 1691

Track COSMOS 1691 now!
10-day predictions
COSMOS 1691 is classified as:


NORAD ID: 16139
Int'l Code: 1985-094B
Perigee: 1,418.6 km
Apogee: 1,421.8 km
Inclination: 82.6 °
Period: 114.1 minutes
Semi major axis: 7791 km
RCS: 1.0877 m2 (large)
Launch date: October 9, 1985
Source: Commonwealth of Independent States (former USSR) (CIS)
Launch site: PLESETSK MISSILE AND SPACE COMPLEX (PKMTR)
aabbcc
Your satellite tracking list
Your tracking list is empty




NASA's NSSDC Master Catalog

Two Line Element Set (TLE):
1 16139U 85094B   18112.90546135 +.00000011 +00000-0 +21952-5 0  9998
2 16139 082.6163 021.5402 0002016 088.0540 030.2437 12.62395423499565
Source of the keplerian elements: AFSPC